Weather History for Fresno, CA

Change the Weather History Date:

Friday, February 22, 2013

  Actual Average Record
Temperature  
Mean Temperature 50 °F 53 °F  
Max Temperature 61 °F 64 °F 78 °F (1989)
Min Temperature 39 °F 43 °F 30 °F (1951)
Degree Days  
Heating Degree Days 15    
Month to date heating degree days 311  
Since 1 July heating degree days 1517  
Cooling Degree Days 0    
Month to date cooling degree days 0  
Year to date cooling degree days 0  
Moisture  
Dew Point 37 °F    
Average Humidity 62    
Maximum Humidity 85    
Minimum Humidity 39    
Precipitation  
Precipitation 0.00 in 0.07 in 1.13 in (1936)
Month to date precipitation 0.89 1.60  
Year to date precipitation 1.47 3.79  
Since 1 July precipitation 4.86 7.45  
Snow  
Snow 0.00 in - - ()
Month to date snowfall 0.0  
Since 1 July snowfall 0.0  
Snow Depth 0.00 in    
Sea Level Pressure  
Sea Level Pressure 30.22 in    
Wind  
Wind Speed 2 mph (SE)    
Max Wind Speed 8 mph    
Max Gust Speed 10 mph    
Visibility 10 miles    
Events      
T = Trace of Precipitation, MM = Missing Value Source: NWS Daily Summary

Daily Weather History Graph

Daily Weather History Graph

Search for Another Location

Airport:

Trip Planner

Search our weather history database for the weather conditions in past years. The results will help you decide how hot, cold, wet, or windy it might be!

Date:

Astronomy

Feb. 22, 2013 Rise Set
Actual Time 6:38 AM PST 5:46 PM PST
Civil Twilight 6:12 AM PST 6:12 PM PST
Nautical Twilight 5:42 AM PST 6:43 PM PST
Astronomical Twilight 5:12 AM PST 7:13 PM PST
Moon 3:05 PM PST (2/22) 4:23 AM PST (2/22)
Length of Visible Light 12h 00m
Length of Day
11h 08m
Waxing Gibbous, 91% of the Moon is Illuminated
Feb 22
Waxing Gibbous
Feb 25
Full
Mar 4
Last Quarter
Mar 11
New
Mar 19
First Quarter

Hourly Weather History & Observations

Time (PST) Temp. Windchill Dew Point Humidity Pressure Visibility Wind Dir Wind Speed Gust Speed Precip Events Conditions
12:53 AM 45.0 °F - 37.9 °F 76% 30.20 in 8.0 mi Calm Calm - N/A   Mostly Cloudy
1:53 AM 43.0 °F - 37.9 °F 82% 30.20 in 7.0 mi Calm Calm - N/A   Mostly Cloudy
2:53 AM 43.0 °F - 37.0 °F 80% 30.18 in 9.0 mi Calm Calm - N/A   Mostly Cloudy
3:53 AM 42.1 °F - 36.0 °F 79% 30.19 in 10.0 mi Calm Calm - N/A   Mostly Cloudy
4:53 AM 42.1 °F 38.4 °F 36.0 °F 79% 30.20 in 10.0 mi ESE 5.8 mph - N/A   Mostly Cloudy
5:53 AM 39.9 °F 37.8 °F 35.1 °F 83% 30.21 in 10.0 mi ESE 3.5 mph - N/A   Mostly Cloudy
6:53 AM 39.9 °F - 34.0 °F 79% 30.23 in 10.0 mi Calm Calm - N/A   Mostly Cloudy
7:53 AM 43.0 °F - 36.0 °F 76% 30.25 in 10.0 mi Calm Calm - N/A   Scattered Clouds
8:53 AM 46.9 °F - 36.0 °F 66% 30.27 in 10.0 mi Calm Calm - N/A   Scattered Clouds
9:53 AM 51.1 °F - 37.0 °F 59% 30.27 in 10.0 mi South 5.8 mph - N/A   Partly Cloudy
10:53 AM 54.0 °F - 37.9 °F 55% 30.26 in 10.0 mi SSE 4.6 mph - N/A   Partly Cloudy
11:53 AM 57.0 °F - 39.0 °F 51% 30.25 in 10.0 mi South 6.9 mph - N/A   Scattered Clouds
12:53 PM 57.0 °F - 37.0 °F 47% 30.24 in 9.0 mi SSE 3.5 mph - N/A   Mostly Cloudy
1:53 PM 59.0 °F - 37.0 °F 44% 30.22 in 9.0 mi NE 4.6 mph - N/A   Mostly Cloudy
2:53 PM 60.1 °F - 36.0 °F 41% 30.20 in 10.0 mi Calm Calm - N/A   Scattered Clouds
3:53 PM 60.1 °F - 37.0 °F 42% 30.20 in 9.0 mi Variable 3.5 mph - N/A   Scattered Clouds
4:53 PM 60.1 °F - 35.1 °F 39% 30.19 in 10.0 mi Calm Calm - N/A   Scattered Clouds
5:53 PM 57.9 °F - 36.0 °F 44% 30.21 in 10.0 mi Calm Calm - N/A   Scattered Clouds
6:53 PM 54.0 °F - 37.9 °F 55% 30.22 in 10.0 mi Calm Calm - N/A   Scattered Clouds
7:53 PM 54.0 °F - 37.9 °F 55% 30.22 in 10.0 mi Calm Calm - N/A   Scattered Clouds
8:53 PM 51.1 °F - 39.0 °F 63% 30.23 in 10.0 mi Calm Calm - N/A   Scattered Clouds
9:53 PM 48.9 °F - 39.0 °F 69% 30.24 in 10.0 mi Calm Calm - N/A   Scattered Clouds
10:53 PM 48.0 °F - 39.0 °F 71% 30.22 in 9.0 mi East 3.5 mph - N/A   Scattered Clouds
11:53 PM 46.9 °F - 39.0 °F 74% 30.23 in 9.0 mi Calm Calm - N/A   Mostly Cloudy